Location: Bovenkerk
(52.2915°N, 4.8336°E)
Time: 01:39:43
(UTC+00:00)

N. Korean satellite - Pass Details

Date: 06 March 2021
Orbit: 453 x 499 km, 97.2° (Epoch: 11 April)

Event Time Altitude Azimuth Distance (km) Brightness Sun altitude
Rises 05:35:46 0° 10° (N) 2,528 10.3 -6.9°
Reaches altitude 10° 05:37:50 10° 6° (N) 1,653 9.3 -6.6°
Maximum altitude 05:41:19 58° 288° (WNW) 569 6.6 -6.0°
Drops below altitude 10° 05:44:50 10° 209° (SSW) 1,666 9.0 -5.5°
Sets 05:46:56 0° 205° (SSW) 2,549 10.0 -5.2°
